Location: Barcelona
(41.3830°N, 2.1830°E)
Time: 00:44:08
(UTC+02:00)

ISS - Pass Details

Date: 15 July 2019
Orbit: 409 x 418 km, 51.6° (Epoch: 22 July)

Event Time Altitude Azimuth Distance (km) Brightness Sun altitude
Exits shadow 02:20:14 10° 307° (NW) 1,508 -0.6 -26.8°
Reaches altitude 10° 02:20:19 10° 309° (NW) 1,484 -0.6 -26.8°
Maximum altitude 02:22:29 16° 349° (N) 1,172 -0.7 -26.7°
Drops below altitude 10° 02:24:38 10° 30° (NNE) 1,482 -0.1 -26.7°
Sets 02:27:19 0° 53° (NE) 2,344 0.7 -26.6°
